Weather History for KPYX - September, 2012

Change the Weather History Date:

Wednesday, September 12, 2012

  Actual Average Record
Temperature  
Mean Temperature 70 °F -  
Max Temperature 84 °F 86 °F 100 °F (2004)
Min Temperature 55 °F 58 °F 44 °F (2014)
Cooling Degree Days 4    
Growing Degree Days 20 (Base 50)    
Moisture  
Dew Point 44 °F    
Average Humidity 39    
Maximum Humidity 77    
Minimum Humidity 19    
Precipitation  
Precipitation 0.00 in - - ()
Sea Level Pressure  
Sea Level Pressure 30.02 in    
Wind  
Wind Speed 15 mph (WNW)    
Max Wind Speed 29 mph    
Max Gust Speed 38 mph    
Visibility 10 miles    
Events      
Averages and records for this station are not official NWS values.
T = Trace of Precipitation, MM = Missing Value Source: NWS Daily Summary

Daily Weather History Graph

Daily Weather History Graph

Search for Another Location

Airport or City:

Trip Planner

Search our weather history database for the weather conditions in past years. The results will help you decide how hot, cold, wet, or windy it might be!

Date:

Astronomy

Sep. 12, 2012 Rise Set
Actual Time 7:23 AM CDT 7:54 PM CDT
Civil Twilight 6:57 AM CDT 8:19 PM CDT
Nautical Twilight 6:27 AM CDT 8:50 PM CDT
Astronomical Twilight 5:55 AM CDT 9:21 PM CDT
Moon 3:47 AM CDT (9/12) 5:39 PM CDT (9/12)
Length of Visible Light 13h 22m
Length of Day
12h 30m
Waning Crescent, 13% of the Moon is Illuminated
Sep 12
Waning Crescent
Sep 15
New
Sep 22
First Quarter
Sep 29
Full
Oct 8
Last Quarter

Hourly Weather History & Observations

Time (CDT) Temp. Dew Point Humidity Pressure Visibility Wind Dir Wind Speed Gust Speed Precip Events Conditions
12:35 AM 78.8 °F 42.8 °F 28% 29.94 in 10.0 mi South 23.0 mph 28.8 mph N/A   Clear
12:55 AM 77.0 °F 42.8 °F 29% 29.95 in 10.0 mi South 21.9 mph 26.5 mph N/A   Clear
1:15 AM 77.0 °F 42.8 °F 29% 29.94 in 10.0 mi South 19.6 mph 27.6 mph N/A   Clear
1:35 AM 77.0 °F 42.8 °F 29% 29.94 in 10.0 mi South 20.7 mph 26.5 mph N/A   Clear
1:55 AM 75.2 °F 42.8 °F 31% 29.94 in 10.0 mi South 19.6 mph 26.5 mph N/A   Clear
2:15 AM 73.4 °F 42.8 °F 33% 29.94 in 10.0 mi South 18.4 mph 25.3 mph N/A   Clear
2:35 AM 73.4 °F 42.8 °F 33% 29.94 in 10.0 mi South 17.3 mph - N/A   Clear
2:55 AM 73.4 °F 42.8 °F 33% 29.94 in 10.0 mi South 18.4 mph 25.3 mph N/A   Clear
3:15 AM 73.4 °F 42.8 °F 33% 29.93 in 10.0 mi South 19.6 mph 26.5 mph N/A   Clear
3:35 AM 73.4 °F 42.8 °F 33% 29.93 in 10.0 mi South 18.4 mph 23.0 mph N/A   Clear
3:55 AM 71.6 °F 42.8 °F 35% 29.93 in 10.0 mi South 17.3 mph 24.2 mph N/A   Clear
4:15 AM 71.6 °F 42.8 °F 35% 29.93 in 10.0 mi South 17.3 mph 21.9 mph N/A   Clear
4:35 AM 71.6 °F 42.8 °F 35% 29.92 in 10.0 mi South 13.8 mph - N/A   Clear
4:55 AM 71.6 °F 42.8 °F 35% 29.92 in 10.0 mi South 15.0 mph - N/A   Clear
5:15 AM 69.8 °F 42.8 °F 38% 29.92 in 10.0 mi South 10.4 mph - N/A   Clear
5:35 AM 69.8 °F 42.8 °F 38% 29.92 in 10.0 mi South 13.8 mph - N/A   Clear
5:55 AM 69.8 °F 42.8 °F 38% 29.92 in 10.0 mi South 11.5 mph - N/A   Clear
6:15 AM 68.0 °F 42.8 °F 40% 29.93 in 10.0 mi South 9.2 mph - N/A   Clear
6:35 AM 68.0 °F 42.8 °F 40% 29.93 in 10.0 mi South 9.2 mph - N/A   Clear
6:55 AM 68.0 °F 42.8 °F 40% 29.94 in 10.0 mi South 11.5 mph - N/A   Clear
7:15 AM 69.8 °F 42.8 °F 38% 29.95 in 10.0 mi SSW 10.4 mph - N/A   Clear
7:35 AM 68.0 °F 44.6 °F 43% 29.96 in 10.0 mi SW 9.2 mph - N/A   Clear
7:55 AM 66.2 °F 44.6 °F 46% 29.97 in 10.0 mi WSW 5.8 mph - N/A   Clear
8:15 AM 68.0 °F 44.6 °F 43% 29.98 in 10.0 mi SW 5.8 mph - N/A   Clear
8:35 AM 69.8 °F 44.6 °F 40% 29.98 in 10.0 mi SSW 4.6 mph - N/A   Clear
8:55 AM 71.6 °F 44.6 °F 38% 29.98 in 10.0 mi SW 8.1 mph - N/A   Clear
9:15 AM 75.2 °F 46.4 °F 36% 29.98 in 10.0 mi West 8.1 mph 16.1 mph N/A   Clear
9:35 AM 73.4 °F 42.8 °F 33% 29.98 in 10.0 mi NW 8.1 mph - N/A   Clear
9:55 AM 75.2 °F 39.2 °F 27% 29.99 in 10.0 mi NW 9.2 mph - N/A   Clear
10:15 AM 77.0 °F 37.4 °F 24% 30.00 in 7.0 mi NW 8.1 mph - N/A   Clear
10:35 AM 77.0 °F 37.4 °F 24% 30.00 in 7.0 mi NW 6.9 mph - N/A   Clear
10:55 AM 78.8 °F 37.4 °F 23% 30.00 in 7.0 mi NNW 6.9 mph - N/A   Clear
11:15 AM 78.8 °F 37.4 °F 23% 30.00 in 7.0 mi WNW 6.9 mph - N/A   Clear
11:35 AM 80.6 °F 37.4 °F 21% 30.01 in 7.0 mi NW 6.9 mph - N/A   Clear
11:55 AM 82.4 °F 37.4 °F 20% 30.02 in 10.0 mi West 6.9 mph - N/A   Clear
12:15 PM 82.4 °F 37.4 °F 20% 30.02 in 10.0 mi WNW 10.4 mph - N/A   Clear
12:35 PM 82.4 °F 37.4 °F 20% 30.02 in 10.0 mi WNW 4.6 mph - N/A   Clear
12:55 PM 82.4 °F 37.4 °F 20% 30.02 in 10.0 mi Calm Calm - N/A   Clear
1:15 PM 82.4 °F 37.4 °F 20% 30.02 in 10.0 mi WNW 3.5 mph - N/A   Clear
1:35 PM 84.2 °F 37.4 °F 19% 30.02 in 10.0 mi West 4.6 mph - N/A   Clear
1:55 PM 84.2 °F 37.4 °F 19% 30.02 in 10.0 mi WNW 4.6 mph - N/A   Clear
2:15 PM 84.2 °F 37.4 °F 19% 30.02 in 10.0 mi WNW 8.1 mph - N/A   Clear
2:35 PM 82.4 °F 39.2 °F 21% 30.01 in 10.0 mi WNW 10.4 mph - N/A   Scattered Clouds
2:55 PM 80.6 °F 42.8 °F 26% 30.02 in 7.0 mi NW 11.5 mph - N/A   Mostly Cloudy
3:15 PM 78.8 °F 44.6 °F 30% 30.01 in 7.0 mi WNW 17.3 mph - N/A   Mostly Cloudy
3:35 PM 73.4 °F 50.0 °F 44% 30.01 in 10.0 mi NW 13.8 mph - N/A   Mostly Cloudy
3:55 PM 73.4 °F 50.0 °F 44% 30.01 in 10.0 mi NNW 11.5 mph - N/A   Scattered Clouds
4:15 PM 73.4 °F 51.8 °F 47% 30.00 in 7.0 mi NNW 10.4 mph - N/A   Scattered Clouds
4:55 PM 73.4 °F 51.8 °F 47% 30.00 in 10.0 mi NW 10.4 mph - N/A   Mostly Cloudy
5:15 PM 77.0 °F 50.0 °F 39% 30.00 in 10.0 mi NNW 11.5 mph - N/A   Scattered Clouds
5:35 PM 77.0 °F 46.4 °F 34% 30.01 in 10.0 mi NNW 9.2 mph - N/A   Scattered Clouds
5:55 PM 77.0 °F 50.0 °F 39% 30.02 in 7.0 mi NNW 10.4 mph - N/A   Scattered Clouds
6:15 PM 75.2 °F 50.0 °F 41% 30.04 in 10.0 mi NW 10.4 mph - N/A   Mostly Cloudy
6:35 PM 73.4 °F 51.8 °F 47% 30.04 in 10.0 mi NNW 11.5 mph - N/A   Mostly Cloudy
6:55 PM 73.4 °F 50.0 °F 44% 30.04 in 10.0 mi North 16.1 mph 20.7 mph N/A   Mostly Cloudy
7:15 PM 73.4 °F 50.0 °F 44% 30.04 in 10.0 mi NNW 16.1 mph - N/A   Overcast
7:35 PM 73.4 °F 50.0 °F 44% 30.05 in 10.0 mi North 17.3 mph 20.7 mph N/A   Mostly Cloudy
7:55 PM 71.6 °F 51.8 °F 50% 30.07 in 10.0 mi North 13.8 mph 19.6 mph N/A   Mostly Cloudy
8:15 PM 66.2 °F 46.4 °F 49% 30.09 in 7.0 mi North 28.8 mph 34.5 mph N/A   Scattered Clouds
8:35 PM 64.4 °F 46.4 °F 52% 30.11 in 10.0 mi North 26.5 mph 38.0 mph N/A   Clear
8:55 PM 62.6 °F 44.6 °F 52% 30.14 in 10.0 mi North 24.2 mph 35.7 mph N/A   Clear
9:15 PM 60.8 °F 44.6 °F 55% 30.15 in 10.0 mi North 26.5 mph 35.7 mph N/A   Clear
9:35 PM 60.8 °F 44.6 °F 55% 30.17 in 10.0 mi North 21.9 mph 29.9 mph N/A   Clear
9:55 PM 59.0 °F 46.4 °F 63% 30.19 in 10.0 mi North 27.6 mph 35.7 mph N/A   Clear
10:15 PM 57.2 °F 46.4 °F 67% 30.20 in 10.0 mi North 28.8 mph 35.7 mph N/A   Clear
10:35 PM 57.2 °F 48.2 °F 72% 30.21 in 10.0 mi North 26.5 mph 33.4 mph N/A   Clear
10:55 PM 55.4 °F 48.2 °F 77% 30.22 in 10.0 mi North 23.0 mph 28.8 mph N/A   Clear
11:15 PM 55.4 °F 48.2 °F 77% 30.23 in 10.0 mi North 21.9 mph 32.2 mph N/A   Clear
11:35 PM 55.4 °F 48.2 °F 77% 30.24 in 10.0 mi North 19.6 mph 28.8 mph N/A   Mostly Cloudy
11:55 PM 55.4 °F 48.2 °F 77% 30.25 in 10.0 mi North 20.7 mph 27.6 mph N/A   Overcast